This demonstration page uses our WeatherBlox Daily Observations layout. Learn more.

Left ArrowRight Arrow

38.89511, -77.03637

Hourly Observations for April 14, 2019

Temp ( °F °C ) Dew Point ( °F °C ) Humidity (%) Winds ( mph kmh ) Pressure ( in mb ) Visibility ( mi km ) Precip ( " mm )
12:52 am 00:52 Mostly Cloudy 64 17.8 59 15 84 84 N N/A 30.00 1016 10 16 N/A
1:19 am 01:19 Cloudy 64 17.8 60 15.6 87 87 S 5 7 30.00 1016 10 16 N/A
1:52 am 01:52 Cloudy 63 17.2 60 15.6 90 90 SSE 3 6 29.97 1015 10 16 N/A
2:52 am 02:52 Cloudy 64 17.8 61 16.1 90 90 S 5 7 29.96 1014 10 16 N/A
3:52 am 03:52 Cloudy 64 17.8 61 16.1 90 90 S 5 7 29.96 1015 10 16 N/A
4:52 am 04:52 Cloudy 64 17.8 61 16.1 90 90 S 3 6 29.96 1014 10 16 N/A
5:52 am 05:52 Cloudy 64 17.8 61 16.1 90 90 SSE 3 6 29.94 1014 10 16 N/A
5:58 am 05:58 Cloudy 64 17.8 61 16.1 90 90 ESE 5 7 29.94 1014 10 16 N/A
6:11 am 06:11 Cloudy 65 18.3 61 16.1 87 87 SE 5 7 29.94 1014 10 16 N/A
6:20 am 06:20 Cloudy with Drizzle 64 17.8 61 16.1 90 90 SSE 6 9 29.94 1014 5 8 N/A
6:27 am 06:27 Cloudy with Drizzle 65 18.3 61 16.1 87 87 SSE 6 9 29.94 1014 4 6 N/A
6:37 am 06:37 Cloudy with Drizzle 64 17.8 61 16.1 90 90 SSE 6 9 29.94 1014 3 4 N/A
6:40 am 06:40 Cloudy with Drizzle 64 17.8 61 16.1 90 90 SSE 6 9 29.94 1014 2 3 N/A
6:52 am 06:52 Cloudy with Drizzle 64 17.8 62 16.7 93 93 SSE 6 9 29.93 1014 2 3 N/A
7:52 am 07:52 Cloudy with Drizzle 65 18.3 63 17.2 93 93 S 3 6 29.93 1014 2 3 N/A
8:52 am 08:52 Cloudy with Mist and Fog 66 18.9 63 17.2 90 90 S 5 7 29.90 1013 6 10 N/A
9:17 am 09:17 Cloudy 66 18.9 63 17.2 90 90 S 6 9 29.89 1012 8 13 N/A
9:52 am 09:52 Cloudy with Mist and Fog 68 20 64 17.8 87 87 S 7 11 29.88 1012 6 10 N/A
10:52 am 10:52 Cloudy with Drizzle 69 20.6 64 17.8 84 84 S 13 20 29.85 1011 6 10 N/A
11:52 am 11:52 Cloudy 69 20.6 64 17.8 84 84 S 12 19 29.83 1010 7 11 N/A
12:52 pm 12:52 Cloudy 72 22.2 65 18.3 79 79 S 10 17 29.81 1009 9 14 N/A
1:14 pm 13:14 Cloudy 74 23.3 65 18.3 74 74 SSW 12 19 29.80 1009 10 16 N/A
1:52 pm 13:52 Cloudy 74 23.3 65 18.3 74 74 S 10 17 29.78 1008 10 16 N/A
2:17 pm 14:17 Cloudy 73 22.8 65 18.3 76 76 S 8 13 29.77 1008 10 16 N/A
2:52 pm 14:52 Cloudy 74 23.3 65 18.3 74 74 S 10 17 29.74 1007 10 16 N/A
3:52 pm 15:52 Cloudy 75 23.9 64 17.8 69 69 S 12 19 29.68 1005 10 16 N/A
4:52 pm 16:52 Cloudy 74 23.3 63 17.2 69 69 SSE 13 20 29.64 1004 10 16 N/A
5:52 pm 17:52 Cloudy 76 24.4 63 17.2 64 64 SSE 16 26 29.63 1003 10 16 N/A
6:52 pm 18:52 Cloudy 76 24.4 63 17.2 64 64 SSE 15 24 29.58 1002 10 16 N/A
7:52 pm 19:52 Cloudy 75 23.9 63 17.2 66 66 SSE 13 20 29.55 1001 10 16 N/A
8:52 pm 20:52 Mostly Cloudy 73 22.8 64 17.8 74 74 S 12 19 29.53 1000 10 16 N/A
9:52 pm 21:52 Mostly Cloudy 74 23.3 63 17.2 69 69 S 20 31 29.50 999 10 16 N/A
10:52 pm 22:52 Mostly Cloudy 74 23.3 63 17.2 69 69 S 23 37 29.46 998 10 16 N/A
11:52 pm 23:52 Mostly Cloudy 74 23.3 63 17.2 69 69 S 17 28 29.43 997 10 16 N/A

Powered by AerisWeather